Time,TemperatureF,DewpointF,PressureIn,WindDirection,WindDirectionDegrees,WindSpeedMPH,WindSpeedGustMPH,Humidity,HourlyPrecipIn,Conditions,Clouds,dailyrainin,SoftwareType,DateUTC
2013-02-28 00:01:00,47.0,0.0,-100.00,East,81,9.0,14.0,14,-99.99,,,-99.99,,2013-02-28 08:01:00,
2013-02-28 00:11:00,46.0,0.0,-100.00,East,80,9.0,12.0,14,-99.99,,,-99.99,,2013-02-28 08:11:00,
2013-02-28 00:21:00,46.0,0.0,-100.00,ENE,70,9.0,12.0,14,-99.99,,,-99.99,,2013-02-28 08:21:00,
2013-02-28 00:31:00,46.0,-2.0,-100.00,East,81,9.0,15.0,13,-99.99,,,-99.99,,2013-02-28 08:31:00,
2013-02-28 00:42:00,46.0,0.0,-100.00,East,79,9.0,15.0,14,-99.99,,,-99.99,,2013-02-28 08:42:00,
2013-02-28 00:52:00,47.0,-1.0,-100.00,ENE,61,9.0,12.0,13,-99.99,,,-99.99,,2013-02-28 08:52:00,
2013-02-28 01:02:00,46.0,0.0,-100.00,NE,53,8.0,12.0,14,-99.99,,,-99.99,,2013-02-28 09:02:00,
2013-02-28 01:11:00,46.0,0.0,-100.00,NE,44,8.0,11.0,14,-99.99,,,-99.99,,2013-02-28 09:11:00,
2013-02-28 01:21:00,46.0,0.0,-100.00,ENE,65,8.0,13.0,14,-99.99,,,-99.99,,2013-02-28 09:21:00,
2013-02-28 01:31:00,47.0,-1.0,-100.00,East,91,8.0,15.0,13,-99.99,,,-99.99,,2013-02-28 09:31:00,
2013-02-28 01:41:00,48.0,-2.0,-100.00,ENE,74,9.0,16.0,12,-99.99,,,-99.99,,2013-02-28 09:41:00,
2013-02-28 01:52:00,48.0,0.0,-100.00,East,79,8.0,16.0,13,-99.99,,,-99.99,,2013-02-28 09:52:00,
2013-02-28 02:01:00,47.0,-1.0,-100.00,East,80,8.0,11.0,13,-99.99,,,-99.99,,2013-02-28 10:01:00,
2013-02-28 02:11:00,47.0,-1.0,-100.00,ENE,78,9.0,13.0,13,-99.99,,,-99.99,,2013-02-28 10:11:00,
2013-02-28 02:21:00,47.0,-1.0,-100.00,ENE,64,9.0,13.0,13,-99.99,,,-99.99,,2013-02-28 10:21:00,
2013-02-28 02:31:00,47.0,-1.0,-100.00,ENE,68,10.0,16.0,13,-99.99,,,-99.99,,2013-02-28 10:31:00,
2013-02-28 02:42:00,47.0,-1.0,-100.00,NE,51,11.0,16.0,13,-99.99,,,-99.99,,2013-02-28 10:42:00,
2013-02-28 02:51:00,47.0,-1.0,-100.00,NNE,32,13.0,21.0,13,-99.99,,,-99.99,,2013-02-28 10:51:00,
2013-02-28 03:01:00,46.0,0.0,-100.00,NNE,33,12.0,17.0,14,-99.99,,,-99.99,,2013-02-28 11:01:00,
2013-02-28 03:11:00,47.0,0.0,-100.00,NE,34,13.0,17.0,14,-99.99,,,-99.99,,2013-02-28 11:11:00,
2013-02-28 03:21:00,47.0,0.0,-100.00,NE,42,10.0,15.0,14,-99.99,,,-99.99,,2013-02-28 11:21:00,
2013-02-28 03:31:00,46.0,0.0,-100.00,NE,52,9.0,15.0,14,-99.99,,,-99.99,,2013-02-28 11:31:00,
2013-02-28 03:41:00,47.0,-1.0,-100.00,ENE,65,8.0,14.0,13,-99.99,,,-99.99,,2013-02-28 11:41:00,
2013-02-28 03:52:00,47.0,-1.0,-100.00,ENE,65,10.0,15.0,13,-99.99,,,-99.99,,2013-02-28 11:52:00,
2013-02-28 04:01:00,46.0,0.0,-100.00,ENE,57,9.0,12.0,14,-99.99,,,-99.99,,2013-02-28 12:01:00,
2013-02-28 04:11:00,46.0,0.0,-100.00,NE,43,11.0,16.0,14,-99.99,,,-99.99,,2013-02-28 12:11:00,
2013-02-28 04:21:00,45.0,0.0,-100.00,NE,35,14.0,18.0,15,-99.99,,,-99.99,,2013-02-28 12:21:00,
2013-02-28 04:31:00,46.0,1.0,-100.00,NNE,32,14.0,18.0,15,-99.99,,,-99.99,,2013-02-28 12:31:00,
2013-02-28 04:42:00,46.0,1.0,-100.00,NE,36,13.0,16.0,15,-99.99,,,-99.99,,2013-02-28 12:42:00,
2013-02-28 04:52:00,45.0,0.0,-100.00,NE,45,10.0,15.0,15,-99.99,,,-99.99,,2013-02-28 12:52:00,
2013-02-28 05:01:00,45.0,0.0,-100.00,NE,49,10.0,12.0,15,-99.99,,,-99.99,,2013-02-28 13:01:00,
2013-02-28 05:11:00,45.0,0.0,-100.00,NE,49,10.0,12.0,15,-99.99,,,-99.99,,2013-02-28 13:11:00,
2013-02-28 05:21:00,45.0,0.0,-100.00,NE,49,10.0,12.0,15,-99.99,,,-99.99,,2013-02-28 13:21:00,
2013-02-28 05:31:00,45.0,0.0,-100.00,NE,39,10.0,13.0,15,-99.99,,,-99.99,,2013-02-28 13:31:00,
2013-02-28 05:42:00,45.0,0.0,-100.00,NE,43,8.0,10.0,15,-99.99,,,-99.99,,2013-02-28 13:42:00,
2013-02-28 05:52:00,45.0,0.0,-100.00,NE,48,8.0,9.0,15,-99.99,,,-99.99,,2013-02-28 13:52:00,
2013-02-28 06:01:00,45.0,0.0,-100.00,NE,37,8.0,10.0,15,-99.99,,,-99.99,,2013-02-28 14:01:00,
2013-02-28 06:11:00,45.0,0.0,-100.00,NE,42,9.0,12.0,15,-99.99,,,-99.99,,2013-02-28 14:11:00,
2013-02-28 06:21:00,45.0,0.0,-100.00,NE,52,10.0,14.0,15,-99.99,,,-99.99,,2013-02-28 14:21:00,
2013-02-28 06:31:00,46.0,0.0,-100.00,ENE,65,11.0,14.0,14,-99.99,,,-99.99,,2013-02-28 14:31:00,
2013-02-28 06:42:00,47.0,0.0,-100.00,East,79,9.0,13.0,14,-99.99,,,-99.99,,2013-02-28 14:42:00,
2013-02-28 06:52:00,47.0,-1.0,-100.00,East,97,9.0,24.0,13,-99.99,,,-99.99,,2013-02-28 14:52:00,
2013-02-28 07:01:00,47.0,0.0,-100.00,ESE,114,8.0,13.0,14,-99.99,,,-99.99,,2013-02-28 15:01:00,
2013-02-28 07:11:00,47.0,0.0,-100.00,ESE,111,8.0,16.0,14,-99.99,,,-99.99,,2013-02-28 15:11:00,
2013-02-28 07:21:00,47.0,0.0,-100.00,East,89,7.0,11.0,14,-99.99,,,-99.99,,2013-02-28 15:21:00,
2013-02-28 07:31:00,48.0,1.0,-100.00,ENE,59,11.0,17.0,14,-99.99,,,-99.99,,2013-02-28 15:31:00,
2013-02-28 07:41:00,48.0,1.0,-100.00,ENE,59,11.0,17.0,14,-99.99,,,-99.99,,2013-02-28 15:41:00,
2013-02-28 07:52:00,49.0,0.0,-100.00,NE,55,13.0,20.0,13,-99.99,,,-99.99,,2013-02-28 15:52:00,
2013-02-28 08:01:00,50.0,1.0,-100.00,NE,49,15.0,23.0,13,-99.99,,,-99.99,,2013-02-28 16:01:00,
2013-02-28 08:11:00,50.0,1.0,-100.00,NE,44,17.0,26.0,13,-99.99,,,-99.99,,2013-02-28 16:11:00,
2013-02-28 08:21:00,50.0,1.0,-100.00,NE,45,17.0,25.0,13,-99.99,,,-99.99,,2013-02-28 16:21:00,
2013-02-28 08:31:00,50.0,1.0,-100.00,NE,45,17.0,25.0,13,-99.99,,,-99.99,,2013-02-28 16:31:00,
2013-02-28 08:42:00,51.0,2.0,-100.00,NE,38,18.0,29.0,13,-99.99,,,-99.99,,2013-02-28 16:42:00,
2013-02-28 08:52:00,51.0,0.0,-100.00,NE,39,18.0,29.0,12,-99.99,,,-99.99,,2013-02-28 16:52:00,
2013-02-28 09:01:00,52.0,1.0,-100.00,NE,41,21.0,30.0,12,-99.99,,,-99.99,,2013-02-28 17:01:00,
2013-02-28 09:11:00,52.0,1.0,-100.00,NE,37,18.0,27.0,12,-99.99,,,-99.99,,2013-02-28 17:11:00,
2013-02-28 09:21:00,52.0,1.0,-100.00,NE,42,16.0,25.0,12,-99.99,,,-99.99,,2013-02-28 17:21:00,
2013-02-28 09:32:00,53.0,2.0,-100.00,NE,45,14.0,26.0,12,-99.99,,,-99.99,,2013-02-28 17:32:00,
2013-02-28 09:41:00,52.0,1.0,-100.00,NE,47,20.0,30.0,12,-99.99,,,-99.99,,2013-02-28 17:41:00,
2013-02-28 09:52:00,52.0,1.0,-100.00,NE,49,17.0,27.0,12,-99.99,,,-99.99,,2013-02-28 17:52:00,
2013-02-28 10:01:00,52.0,1.0,-100.00,NE,49,17.0,27.0,12,-99.99,,,-99.99,,2013-02-28 18:01:00,
2013-02-28 10:11:00,53.0,2.0,-100.00,NE,45,15.0,23.0,12,-99.99,,,-99.99,,2013-02-28 18:11:00,
2013-02-28 10:21:00,53.0,2.0,-100.00,NE,39,15.0,25.0,12,-99.99,,,-99.99,,2013-02-28 18:21:00,
2013-02-28 10:31:00,53.0,2.0,-100.00,NE,42,16.0,24.0,12,-99.99,,,-99.99,,2013-02-28 18:31:00,
2013-02-28 10:42:00,54.0,3.0,-100.00,NE,55,16.0,23.0,12,-99.99,,,-99.99,,2013-02-28 18:42:00,
2013-02-28 10:52:00,54.0,3.0,-100.00,ENE,61,16.0,27.0,12,-99.99,,,-99.99,,2013-02-28 18:52:00,
2013-02-28 11:01:00,54.0,3.0,-100.00,NE,52,17.0,24.0,12,-99.99,,,-99.99,,2013-02-28 19:01:00,
2013-02-28 11:11:00,54.0,3.0,-100.00,NE,42,18.0,26.0,12,-99.99,,,-99.99,,2013-02-28 19:11:00,
2013-02-28 11:21:00,54.0,3.0,-100.00,NE,35,18.0,28.0,12,-99.99,,,-99.99,,2013-02-28 19:21:00,
2013-02-28 11:31:00,54.0,3.0,-100.00,NE,42,18.0,26.0,12,-99.99,,,-99.99,,2013-02-28 19:31:00,
2013-02-28 11:41:00,54.0,3.0,-100.00,NE,48,19.0,25.0,12,-99.99,,,-99.99,,2013-02-28 19:41:00,
2013-02-28 11:51:00,55.0,3.0,-100.00,NE,43,18.0,26.0,12,-99.99,,,-99.99,,2013-02-28 19:51:00,
2013-02-28 12:01:00,56.0,4.0,-100.00,NE,46,16.0,23.0,12,-99.99,,,-99.99,,2013-02-28 20:01:00,
2013-02-28 12:11:00,55.0,3.0,-100.00,NE,47,19.0,27.0,12,-99.99,,,-99.99,,2013-02-28 20:11:00,
2013-02-28 12:21:00,55.0,3.0,-100.00,NE,53,19.0,28.0,12,-99.99,,,-99.99,,2013-02-28 20:21:00,
2013-02-28 12:31:00,55.0,3.0,-100.00,NE,52,18.0,25.0,12,-99.99,,,-99.99,,2013-02-28 20:31:00,
2013-02-28 12:41:00,57.0,5.0,-100.00,NE,53,15.0,24.0,12,-99.99,,,-99.99,,2013-02-28 20:41:00,
2013-02-28 12:52:00,56.0,4.0,-100.00,NE,44,18.0,29.0,12,-99.99,,,-99.99,,2013-02-28 20:52:00,
2013-02-28 13:01:00,56.0,4.0,-100.00,NE,36,19.0,27.0,12,-99.99,,,-99.99,,2013-02-28 21:01:00,
2013-02-28 13:11:00,56.0,4.0,-100.00,NE,38,19.0,27.0,12,-99.99,,,-99.99,,2013-02-28 21:11:00,
2013-02-28 13:22:00,56.0,4.0,-100.00,NE,36,21.0,27.0,12,-99.99,,,-99.99,,2013-02-28 21:22:00,
2013-02-28 13:31:00,56.0,4.0,-100.00,NE,51,20.0,31.0,12,-99.99,,,-99.99,,2013-02-28 21:31:00,
2013-02-28 13:41:00,57.0,5.0,-100.00,NE,40,20.0,27.0,12,-99.99,,,-99.99,,2013-02-28 21:41:00,
2013-02-28 13:51:00,56.0,2.0,-100.00,NE,45,21.0,29.0,11,-99.99,,,-99.99,,2013-02-28 21:51:00,
2013-02-28 14:01:00,57.0,3.0,-100.00,NE,39,20.0,30.0,11,-99.99,,,-99.99,,2013-02-28 22:01:00,
2013-02-28 14:11:00,57.0,3.0,-100.00,NE,41,19.0,26.0,11,-99.99,,,-99.99,,2013-02-28 22:11:00,
2013-02-28 14:21:00,57.0,3.0,-100.00,NE,44,21.0,30.0,11,-99.99,,,-99.99,,2013-02-28 22:21:00,
2013-02-28 14:31:00,57.0,3.0,-100.00,NE,39,22.0,31.0,11,-99.99,,,-99.99,,2013-02-28 22:31:00,
2013-02-28 14:41:00,57.0,3.0,-100.00,NE,39,20.0,27.0,11,-99.99,,,-99.99,,2013-02-28 22:41:00,
2013-02-28 14:52:00,57.0,3.0,-100.00,NE,40,19.0,27.0,11,-99.99,,,-99.99,,2013-02-28 22:52:00,
2013-02-28 15:01:00,57.0,3.0,-100.00,NE,34,17.0,25.0,11,-99.99,,,-99.99,,2013-02-28 23:01:00,
2013-02-28 15:11:00,57.0,5.0,-100.00,NE,49,17.0,26.0,12,-99.99,,,-99.99,,2013-02-28 23:11:00,
2013-02-28 15:21:00,57.0,3.0,-100.00,NE,47,19.0,27.0,11,-99.99,,,-99.99,,2013-02-28 23:21:00,
2013-02-28 15:31:00,57.0,5.0,-100.00,NE,44,16.0,23.0,12,-99.99,,,-99.99,,2013-02-28 23:31:00,
2013-02-28 15:41:00,57.0,5.0,-100.00,NE,48,17.0,25.0,12,-99.99,,,-99.99,,2013-02-28 23:41:00,
2013-02-28 15:52:00,57.0,5.0,-100.00,NE,50,17.0,24.0,12,-99.99,,,-99.99,,2013-02-28 23:52:00,
2013-02-28 16:01:00,57.0,5.0,-100.00,NE,49,16.0,25.0,12,-99.99,,,-99.99,,2013-03-01 00:01:00,
2013-02-28 16:11:00,57.0,5.0,-100.00,NE,55,15.0,24.0,12,-99.99,,,-99.99,,2013-03-01 00:11:00,
2013-02-28 16:22:00,57.0,5.0,-100.00,NE,56,14.0,21.0,12,-99.99,,,-99.99,,2013-03-01 00:22:00,
2013-02-28 16:32:00,57.0,5.0,-100.00,ENE,59,14.0,23.0,12,-99.99,,,-99.99,,2013-03-01 00:32:00,
2013-02-28 16:41:00,57.0,5.0,-100.00,ENE,59,14.0,23.0,12,-99.99,,,-99.99,,2013-03-01 00:41:00,
2013-02-28 16:51:00,56.0,4.0,-100.00,NE,54,19.0,27.0,12,-99.99,,,-99.99,,2013-03-01 00:51:00,
2013-02-28 17:01:00,56.0,4.0,-100.00,NE,54,19.0,27.0,12,-99.99,,,-99.99,,2013-03-01 01:01:00,
2013-02-28 17:11:00,56.0,4.0,-100.00,NE,54,20.0,26.0,12,-99.99,,,-99.99,,2013-03-01 01:11:00,
2013-02-28 17:21:00,56.0,4.0,-100.00,ENE,60,18.0,25.0,12,-99.99,,,-99.99,,2013-03-01 01:21:00,
2013-02-28 17:31:00,55.0,3.0,-100.00,NE,55,16.0,22.0,12,-99.99,,,-99.99,,2013-03-01 01:31:00,
2013-02-28 17:42:00,55.0,3.0,-100.00,NE,55,16.0,22.0,12,-99.99,,,-99.99,,2013-03-01 01:42:00,
2013-02-28 17:51:00,55.0,5.0,-100.00,NE,53,15.0,20.0,13,-99.99,,,-99.99,,2013-03-01 01:51:00,
2013-02-28 18:01:00,54.0,4.0,-100.00,NE,54,14.0,18.0,13,-99.99,,,-99.99,,2013-03-01 02:01:00,
2013-02-28 18:11:00,54.0,4.0,-100.00,NE,55,14.0,18.0,13,-99.99,,,-99.99,,2013-03-01 02:11:00,
2013-02-28 18:21:00,53.0,5.0,-100.00,NE,53,14.0,18.0,14,-99.99,,,-99.99,,2013-03-01 02:21:00,
2013-02-28 18:31:00,52.0,4.0,-100.00,NE,53,15.0,19.0,14,-99.99,,,-99.99,,2013-03-01 02:31:00,
2013-02-28 18:42:00,52.0,4.0,-100.00,NE,51,13.0,18.0,14,-99.99,,,-99.99,,2013-03-01 02:42:00,
2013-02-28 18:52:00,53.0,4.0,-100.00,NE,43,11.0,15.0,13,-99.99,,,-99.99,,2013-03-01 02:52:00,
2013-02-28 19:01:00,53.0,4.0,-100.00,NE,43,11.0,15.0,13,-99.99,,,-99.99,,2013-03-01 03:01:00,
2013-02-28 19:11:00,52.0,4.0,-100.00,NNE,31,6.0,8.0,14,-99.99,,,-99.99,,2013-03-01 03:11:00,
2013-02-28 19:21:00,52.0,4.0,-100.00,NNE,31,6.0,8.0,14,-99.99,,,-99.99,,2013-03-01 03:21:00,
2013-02-28 19:32:00,51.0,4.0,-100.00,NE,38,8.0,10.0,14,-99.99,,,-99.99,,2013-03-01 03:32:00,
2013-02-28 19:41:00,50.0,4.0,-100.00,NE,35,9.0,11.0,15,-99.99,,,-99.99,,2013-03-01 03:41:00,
2013-02-28 19:51:00,50.0,4.0,-100.00,NNE,29,11.0,13.0,15,-99.99,,,-99.99,,2013-03-01 03:51:00,
2013-02-28 20:01:00,50.0,4.0,-100.00,NNE,30,11.0,15.0,15,-99.99,,,-99.99,,2013-03-01 04:01:00,
2013-02-28 20:11:00,51.0,5.0,-100.00,NNE,26,11.0,14.0,15,-99.99,,,-99.99,,2013-03-01 04:11:00,
2013-02-28 20:21:00,51.0,5.0,-100.00,North,11,10.0,13.0,15,-99.99,,,-99.99,,2013-03-01 04:21:00,
2013-02-28 20:31:00,50.0,6.0,-100.00,North,358,10.0,13.0,16,-99.99,,,-99.99,,2013-03-01 04:31:00,
2013-02-28 20:41:00,49.0,5.0,-100.00,North,352,10.0,11.0,16,-99.99,,,-99.99,,2013-03-01 04:41:00,
2013-02-28 20:51:00,50.0,6.0,-100.00,North,351,11.0,12.0,16,-99.99,,,-99.99,,2013-03-01 04:51:00,
2013-02-28 21:01:00,50.0,4.0,-100.00,North,1,10.0,13.0,15,-99.99,,,-99.99,,2013-03-01 05:01:00,
2013-02-28 21:11:00,51.0,4.0,-100.00,NNE,15,9.0,13.0,14,-99.99,,,-99.99,,2013-03-01 05:11:00,
2013-02-28 21:22:00,53.0,5.0,-100.00,NNE,20,10.0,14.0,14,-99.99,,,-99.99,,2013-03-01 05:22:00,
2013-02-28 21:32:00,53.0,5.0,-100.00,NNE,29,10.0,14.0,14,-99.99,,,-99.99,,2013-03-01 05:32:00,
2013-02-28 21:41:00,53.0,5.0,-100.00,NNE,29,10.0,14.0,14,-99.99,,,-99.99,,2013-03-01 05:41:00,
2013-02-28 21:52:00,52.0,4.0,-100.00,NNE,23,9.0,12.0,14,-99.99,,,-99.99,,2013-03-01 05:52:00,
2013-02-28 22:01:00,51.0,5.0,-100.00,North,2,9.0,11.0,15,-99.99,,,-99.99,,2013-03-01 06:01:00,
2013-02-28 22:11:00,51.0,5.0,-100.00,North,11,10.0,13.0,15,-99.99,,,-99.99,,2013-03-01 06:11:00,
2013-02-28 22:21:00,51.0,5.0,-100.00,NNE,12,11.0,14.0,15,-99.99,,,-99.99,,2013-03-01 06:21:00,
2013-02-28 22:31:00,51.0,5.0,-100.00,NNE,12,10.0,13.0,15,-99.99,,,-99.99,,2013-03-01 06:31:00,
2013-02-28 22:42:00,50.0,6.0,-100.00,North,351,5.0,12.0,16,-99.99,,,-99.99,,2013-03-01 06:42:00,
2013-02-28 22:52:00,49.0,6.0,-100.00,NNE,16,9.0,13.0,17,-99.99,,,-99.99,,2013-03-01 06:52:00,
2013-02-28 23:01:00,49.0,6.0,-100.00,NNE,16,9.0,13.0,17,-99.99,,,-99.99,,2013-03-01 07:01:00,
2013-02-28 23:11:00,51.0,5.0,-100.00,NNE,23,9.0,13.0,15,-99.99,,,-99.99,,2013-03-01 07:11:00,
2013-02-28 23:21:00,51.0,6.0,-100.00,NNE,14,7.0,11.0,16,-99.99,,,-99.99,,2013-03-01 07:21:00,
2013-02-28 23:32:00,50.0,6.0,-100.00,NNE,20,9.0,13.0,16,-99.99,,,-99.99,,2013-03-01 07:32:00,
2013-02-28 23:42:00,51.0,5.0,-100.00,NNE,20,9.0,13.0,15,-99.99,,,-99.99,,2013-03-01 07:42:00,
2013-02-28 23:51:00,50.0,7.0,-100.00,North,358,2.0,8.0,17,-99.99,,,-99.99,,2013-03-01 07:51:00,